GW4275 Weather Reports


time (UTC)temp
C
wind
direction
speed
KPH
gust
KPH
rain 1hr
cm
rain 24hr
cm
rain mn
cm
humidity
%
barometer
mb
20260504050507 9 331 0.0 3.2 0.00 0.00 0.00 56 1011.1
20260504050024 10 330 0.0 3.2 0.00 0.00 0.00 55 1011.2
20260504045506 10 331 0.0 3.2 0.00 0.00 0.00 54 1011.3
20260504045005 10 333 0.0 3.2 0.00 0.00 0.00 54 1011.2
20260504044512 10 333 0.0 3.2 0.00 0.00 0.00 53 1011.2
20260504044003 10 333 0.0 3.2 0.00 0.00 0.00 54 1011.2
20260504043504 10 333 0.0 3.2 0.00 0.00 0.00 53 1011.2
20260504043012 9 333 0.0 3.2 0.00 0.00 0.00 58 1011.2
20260504042506 10 333 0.0 3.2 0.00 0.00 0.00 57 1011.2
20260504042004 10 333 0.0 3.2 0.00 0.00 0.00 55 1011.1
20260504041515 10 333 0.0 3.2 0.00 0.00 0.00 57 1011.1
20260504041006 10 333 0.0 3.2 0.00 0.00 0.00 56 1011.2
20260504040507 10 333 0.0 3.2 0.00 0.00 0.00 55 1011.2
20260504040022 10 333 0.0 3.2 0.00 0.00 0.00 54 1011.2
20260504035507 10 333 0.0 3.2 0.00 0.00 0.00 55 1011.2
20260504035007 10 331 0.0 3.2 0.00 0.00 0.00 56 1011.2
20260504034526 10 331 0.0 3.2 0.00 0.00 0.00 53 1011.2
20260504034010 10 313 0.0 3.2 0.00 0.00 0.00 55 1011.3
20260504033504 10 312 0.0 3.2 0.00 0.00 0.00 57 1011.4
20260504033007 10 312 0.0 3.2 0.00 0.00 0.00 55 1011.5
20260504032503 10 312 0.0 3.2 0.00 0.00 0.00 55 1011.5
20260504032003 10 312 0.0 3.2 0.00 0.00 0.00 56 1011.6
20260504031513 11 306 0.0 3.2 0.00 0.00 0.00 55 1011.6
20260504031002 11 306 0.0 3.2 0.00 0.00 0.00 55 1011.6
20260504030506 11 307 0.0 3.2 0.00 0.00 0.00 56 1011.5
20260504030022 11 306 0.0 3.2 0.00 0.00 0.00 58 1011.5
20260504025507 11 306 0.0 3.2 0.00 0.00 0.00 52 1011.5
20260504025009 11 306 0.0 3.2 0.00 0.00 0.00 54 1011.6
20260504024525 11 306 0.0 3.2 0.00 0.00 0.00 53 1011.6
20260504024008 11 306 0.0 3.2 0.00 0.00 0.00 49 1011.6
20260504023509 11 306 0.0 0.0 0.00 0.00 0.00 47 1011.7
20260504023025 11 306 0.0 3.2 0.00 0.00 0.00 47 1011.7
20260504022510 11 306 0.0 3.2 0.00 0.00 0.00 47 1011.8
20260504022004 11 306 0.0 3.2 0.00 0.00 0.00 47 1011.8
20260504021513 11 323 0.0 3.2 0.00 0.00 0.00 47 1011.8
20260504021003 11 323 0.0 3.2 0.00 0.00 0.00 51 1011.9
20260504020504 11 322 0.0 1.6 0.00 0.00 0.00 48 1011.9
20260504020020 11 322 0.0 1.6 0.00 0.00 0.00 48 1011.9
20260504015504 11 322 0.0 1.6 0.00 0.00 0.00 49 1011.8
20260504015005 11 322 0.0 0.0 0.00 0.00 0.00 48 1011.8
20260504014522 11 322 0.0 3.2 0.00 0.00 0.00 49 1011.8
20260504014009 12 322 0.0 3.2 0.00 0.00 0.00 48 1011.7
20260504013513 12 323 0.0 4.8 0.00 0.00 0.00 48 1011.6
20260504013030 12 271 0.0 4.8 0.00 0.00 0.00 46 1011.7
20260504012509 12 306 0.0 6.4 0.00 0.00 0.00 45 1011.8
20260504012006 12 265 0.0 8.0 0.00 0.00 0.00 45 1011.8
20260504011527 12 57 1.6 8.0 0.00 0.00 0.00 45 1012.0
20260504011009 12 280 1.6 12.9 0.00 0.00 0.00 44 1012.0
20260504010503 12 275 1.6 12.9 0.00 0.00 0.00 45 1012.0
20260504010012 12 17 0.0 3.2 0.00 0.00 0.00 46 1011.9
20260504005503 12 105 1.6 3.2 0.00 0.00 0.00 45 1011.7
20260504005006 12 314 0.0 3.2 0.00 0.00 0.00 45 1011.6
20260504004533 12 65 0.0 3.2 0.00 0.00 0.00 44 1011.4
20260504004005 12 128 0.0 8.0 0.00 0.00 0.00 43 1011.4
20260504003502 12 146 0.0 8.0 0.00 0.00 0.00 43 1011.4
20260504003004 12 225 1.6 4.8 0.00 0.00 0.00 41 1011.2
20260504002502 12 51 0.0 11.3 0.00 0.00 0.00 43 1011.1
20260504002003 12 55 0.0 11.3 0.00 0.00 0.00 44 1011.0
20260504001512 12 133 3.2 9.7 0.00 0.00 0.00 42 1010.7
20260504001002 12 57 0.0 6.4 0.00 0.00 0.00 44 1011.0
20260504000504 12 144 1.6 6.4 0.00 0.00 0.00 44 1011.0
20260504000011 12 123 1.6 6.4 0.00 0.00 0.00 45 1011.2
20260503235502 12 152 1.6 3.2 0.00 0.00 0.00 46 1011.3
20260503235005 12 317 0.0 4.8 0.00 0.00 0.00 44 1011.2
20260503234518 12 289 0.0 9.7 0.00 0.00 0.00 44 1011.3
20260503234006 12 227 1.6 9.7 0.00 0.00 0.00 42 1011.5
20260503233509 12 173 1.6 8.0 0.00 0.00 0.00 43 1011.3
20260503233004 12 302 0.0 3.2 0.00 0.00 0.00 44 1011.3
20260503232502 12 279 0.0 3.2 0.00 0.00 0.00 46 1011.0
20260503232002 12 270 0.0 4.8 0.00 0.00 0.00 43 1011.0
20260503231506 12 106 0.0 4.8 0.00 0.00 0.00 43 1010.8
20260503231004 12 201 1.6 3.2 0.00 0.00 0.00 44 1010.8
20260503230503 12 122 0.0 3.2 0.00 0.00 0.00 45 1010.8
20260503230010 13 122 0.0 3.2 0.00 0.00 0.00 44 1010.6
20260503225503 13 126 0.0 3.2 0.00 0.00 0.00 43 1010.6
20260503225003 13 126 0.0 3.2 0.00 0.00 0.00 43 1010.5
20260503224511 13 126 0.0 3.2 0.00 0.00 0.00 48 1010.6
20260503224005 13 126 0.0 3.2 0.00 0.00 0.00 41 1010.6
20260503223508 13 126 0.0 3.2 0.00 0.00 0.00 42 1010.5
20260503223016 12 126 0.0 3.2 0.00 0.00 0.00 42 1010.6
20260503222507 12 126 0.0 3.2 0.00 0.00 0.00 40 1010.6
20260503222007 12 107 0.0 3.2 0.00 0.00 0.00 43 1010.7
20260503221503 12 117 0.0 3.2 0.00 0.00 0.00 42 1010.7
20260503221002 13 121 0.0 3.2 0.00 0.00 0.00 43 1010.7
20260503220502 13 122 0.0 3.2 0.00 0.00 0.00 40 1010.7
20260503220019 13 122 0.0 3.2 0.00 0.00 0.00 39 1010.8
20260503215502 13 26 0.0 3.2 0.00 0.00 0.00 38 1010.9
20260503215003 13 26 0.0 3.2 0.00 0.00 0.00 39 1010.9
20260503214520 13 165 0.0 3.2 0.00 0.00 0.00 40 1010.9
20260503214003 13 174 0.0 3.2 0.00 0.00 0.00 39 1010.9
20260503213502 13 136 0.0 3.2 0.00 0.00 0.00 38 1010.9
20260503213028 13 171 1.6 3.2 0.00 0.00 0.00 38 1010.9
20260503212507 13 270 0.0 3.2 0.00 0.00 0.00 38 1010.9
20260503212008 13 271 0.0 3.2 0.00 0.00 0.00 39 1010.9
20260503211521 13 352 0.0 3.2 0.00 0.00 0.00 39 1010.9
20260503211006 13 250 0.0 3.2 0.00 0.00 0.00 40 1010.9
20260503210509 13 30 0.0 3.2 0.00 0.00 0.00 38 1011.0
20260503210011 13 179 0.0 3.2 0.00 0.00 0.00 38 1011.0
20260503205502 13 279 0.0 3.2 0.00 0.00 0.00 39 1011.2
20260503205005 13 327 0.0 3.2 0.00 0.00 0.00 40 1011.3
20260503204518 13 345 0.0 3.2 0.00 0.00 0.00 40 1011.2
20260503204003 12 119 0.0 3.2 0.00 0.00 0.00 40 1011.3
20260503203505 12 145 0.0 3.2 0.00 0.00 0.00 43 1011.4
20260503203015 12 319 0.0 3.2 0.00 0.00 0.00 40 1011.5
20260503202511 12 136 0.0 3.2 0.00 0.00 0.00 42 1011.5
20260503202008 12 63 0.0 3.2 0.00 0.00 0.00 42 1011.5
20260503201518 12 350 0.0 3.2 0.00 0.00 0.00 43 1011.6
20260503201007 12 37 0.0 4.8 0.00 0.00 0.00 43 1011.6
20260503200506 12 138 1.6 4.8 0.00 0.00 0.00 40 1011.6
20260503200021 13 284 0.0 3.2 0.00 0.00 0.00 39 1011.7
20260503195510 13 329 1.6 8.0 0.00 0.00 0.00 39 1011.7
20260503195009 13 209 0.0 6.4 0.00 0.00 0.00 39 1011.7
20260503194507 13 138 1.6 6.4 0.00 0.00 0.00 42 1011.7
20260503194002 13 281 0.0 3.2 0.00 0.00 0.00 40 1011.8
20260503193503 13 338 1.6 3.2 0.00 0.00 0.00 40 1011.9
20260503193011 12 338 0.0 3.2 0.00 0.00 0.00 40 1012.0
20260503192507 12 315 0.0 6.4 0.00 0.00 0.00 39 1012.1
20260503192007 12 273 1.6 6.4 0.00 0.00 0.00 40 1012.1
20260503191514 12 279 0.0 3.2 0.00 0.00 0.00 39 1012.1
20260503191007 12 28 0.0 4.8 0.00 0.00 0.00 39 1012.1
20260503190507 12 247 1.6 4.8 0.00 0.00 0.00 38 1012.1
20260503190031 12 271 0.0 3.2 0.00 0.00 0.00 36 1012.1
20260503185508 12 109 0.0 4.8 0.00 0.00 0.00 36 1012.2
20260503185008 13 162 1.6 4.8 0.00 0.00 0.00 36 1012.3
20260503184526 12 336 0.0 3.2 0.00 0.00 0.00 37 1012.3
20260503184009 13 319 0.0 3.2 0.00 0.00 0.00 38 1012.3
20260503183509 12 348 0.0 3.2 0.00 0.00 0.00 37 1012.3
20260503183008 12 342 0.0 3.2 0.00 0.00 0.00 37 1012.4
20260503182503 12 204 0.0 4.8 0.00 0.00 0.00 37 1012.5
20260503182006 12 344 0.0 4.8 0.00 0.00 0.00 36 1012.7
20260503181531 13 268 0.0 3.2 0.00 0.00 0.00 38 1012.5
20260503181006 13 17 0.0 3.2 0.00 0.00 0.00 43 1012.5
20260503180505 12 300 0.0 3.2 0.00 0.00 0.00 38 1012.5
20260503180032 11 333 1.6 6.4 0.00 0.00 0.00 38 1012.6
20260503175507 12 342 1.6 6.4 0.00 0.00 0.00 38 1012.7
20260503175007 12 42 1.6 3.2 0.00 0.00 0.00 38 1012.8
20260503174522 12 260 0.0 6.4 0.00 0.00 0.00 38 1012.9
20260503174011 12 360 1.6 6.4 0.00 0.00 0.00 39 1012.9
20260503173508 12 101 0.0 3.2 0.00 0.00 0.00 40 1013.0
20260503173026 12 212 0.0 3.2 0.00 0.00 0.00 40 1013.1
20260503172512 12 306 1.6 3.2 0.00 0.00 0.00 38 1013.2
20260503172010 12 15 1.6 3.2 0.00 0.00 0.00 37 1013.2
20260503171521 12 264 1.6 3.2 0.00 0.00 0.00 41 1013.3
20260503171005 12 290 0.0 3.2 0.00 0.00 0.00 41 1013.2
20260503170505 12 26 0.0 3.2 0.00 0.00 0.00 40 1013.2
20260503151002 8 11 1.6 6.4 0.00 0.00 0.00 42 1014.9
20260503150502 8 296 1.6 6.4 0.00 0.00 0.00 44 1015.0
20260503131003 6 18 1.6 3.2 0.00 0.00 0.00 49 1015.0
20260503130502 6 239 0.0 4.8 0.00 0.00 0.00 51 1015.0
20260503110516 -17 0.0 0.0 0.00 0.00 0.00 1014.7
20260503090512 -17 0.0 0.0 0.00 0.00 0.00 1014.3
20260503081530 -17 0.0 0.0 0.00 0.00 0.00 1014.0
20260503081014 -17 0.0 0.0 0.00 0.00 0.00 1014.1
20260503080512 -17 0.0 0.0 0.00 0.00 0.00 1014.1
20260503072512 -17 0.0 0.0 0.00 0.00 0.00 1014.1
20260503072008 3 312 0.0 0.0 0.00 0.00 0.00 1014.2
20260503071525 3 312 0.0 0.0 0.00 0.00 0.00 77 1014.2
20260503071007 3 312 0.0 0.0 0.00 0.00 0.00 78 1014.2
20260503070508 3 312 0.0 0.0 0.00 0.00 0.00 77 1014.2